Location: Unspecified
(0.0000°N, 0.0000°E)
Time: 18:52:58
(UTC+00:00)

SRMSAT - Pass Details

Date: 01 June 2020
Orbit: 848 x 866 km, 20.0° (Epoch: 06 July)

Event Time Altitude Azimuth Distance (km) Brightness Sun altitude
Exits shadow 04:41:03 16° 199° (SSW) 2,124 ? -17.7°
Maximum altitude 04:41:37 16° 193° (SSW) 2,113 ? -17.6°
Drops below altitude 10° 04:45:07 10° 157° (SSE) 2,496 ? -16.8°
Sets 04:48:48 0° 135° (SE) 3,433 ? -16.0°
